Vertical_Velocity
-2 -1 -4 3 0 -4 9 5 2 -1 4 2 4 1 2 1 -0 -3 1 0 1 1 1 -1 -2 -1 -1 -1 -0 1 1 -4
-0 14 -8 1 6 2 -3 2 1 -4 -8 -9 -3 -13 -6 -0 -1 2 2 3 -2 -1 3 2 2 -3 0 3 3 3 1 -1
7 1 10 -8 -3 -4 0 2 -0 -2 -7 3 -1 2 3 4 1 1 0 0 -3 -3 -2 -2 1 1 -0 1 0 -0 1 -1
-2 8 2 -3 -9 2 -6 -5 -6 1 4 7 6 6 5 4 -3 -4 -5 -1 -1 -1 1 0 -0 3 -0 -2 0 -1 -2 -2
-2 5 13 -2 -16 6 3 -3 -5 5 7 1 -9 -13 -17 -9 5 7 -1 2 0 -3 0 0 1 3 -1 1 1 -1 6 1
-7 -5 4 -6 6 -10 2 2 2 4 -5 -2 -2 -4 -4 7 -3 -1 -2 2 1 2 -2 3 -3 -1 2 -0 1 1 -3 2
-4 -4 7 2 6 6 2 1 -3 2 -1 0 -7 -6 1 -4 -6 -8 -3 2 0 2 1 1 5 -4 0 -0 4 1 -0 -0
-1 -3 -0 8 5 1 5 5 -5 -0 -2 -2 -4 -5 3 -4 3 -4 -6 -2 -9 -9 1 -3 -1 2 0 2 3 -0 1 -3
-2 0 -0 2 -1 12 -2 -6 5 1 4 -5 -4 8 0 -2 -1 -1 -6 -12 -5 8 -1 -1 2 0 2 3 -1 2 -1 2
0 8 2 3 1 -0 -7 -4 3 6 -9 6 -3 9 2 -15 -10 -0 -1 5 -6 -2 4 3 -3 7 5 4 -0 0 2 3
1 3 -2 -3 2 5 8 3 -8 -17 -1 2 -4 -3 0 3 5 -9 -6 5 1 -2 1 -1 2 2 4 5 2 3 3 1
-1 -2 8 -0 7 6 5 7 -3 3 4 4 6 -4 -2 0 -7 -1 -7 9 0 -2 0 2 0 1 0 4 2 5 2 2
-4 -4 -0 -1 4 5 -2 -3 -3 -1 -0 6 -8 10 9 -1 -1 -1 -0 -5 1 1 -3 0 2 -4 -3 -3 2 6 2 4
2 6 -6 -1 -4 8 0 6 2 8 6 -1 5 3 3 -6 -3 -1 -2 0 1 -3 1 -1 -0 3 5 7 -5 4 6 2
-2 -2 -6 -7 -5 2 -1 3 12 3 3 3 2 -11 -5 -6 2 5 -2 1 -1 1 0 4 0 1 1 6 6 -3 1 5
5 16 10 5 2 8 8 4 6 8 14 9 -10 -8 9 8 9 -0 -0 3 3 10 3 -2 -1 3 -5 -9 6 0 -0 -3
3 9 18 2 6 4 5 5 3 6 11 9 6 3 5 -1 4 12 4 6 3 2 -3 1 3 2 1 10 7 5 -18 -3
-0 -2 9 10 5 3 4 3 3 2 2 5 6 5 5 1 6 1 3 3 1 -7 1 2 1 1 2 2 -4 2 7 -0
-6 7 5 10 10 2 2 5 3 2 -1 1 2 2 3 4 5 6 2 -0 -1 -4 2 2 -2 2 -5 0 -10 -11 -9 -0
Height
1446 1450 1454 1457 1460 1465 1468 1471 1478 1484 1489 1496 1501 1506 1509 1512 1514 1518 1523 1526 1529 1532 1535 1539 1543 1545 1548 1550 1553 1556 1559 1562
1440 1443 1447 1452 1454 1458 1462 1467 1471 1480 1483 1487 1493 1495 1501 1505 1508 1512 1518 1521 1525 1528 1532 1536 1538 1541 1544 1548 1551 1554 1556 1559
1432 1436 1439 1444 1446 1450 1456 1460 1464 1470 1475 1479 1486 1491 1495 1500 1504 1508 1513 1517 1521 1524 1528 1531 1534 1537 1541 1544 1547 1550 1553 1556
1422 1427 1431 1434 1440 1439 1446 1452 1457 1462 1468 1476 1482 1489 1493 1495 1496 1502 1505 1510 1515 1519 1522 1526 1530 1533 1535 1539 1542 1545 1547 1550
1414 1417 1420 1423 1428 1433 1435 1443 1448 1455 1461 1466 1471 1473 1477 1481 1488 1494 1499 1503 1507 1512 1517 1521 1525 1528 1531 1534 1538 1541 1543 1545
1405 1408 1410 1413 1419 1424 1427 1433 1439 1446 1450 1455 1460 1466 1470 1476 1484 1488 1493 1498 1502 1505 1509 1513 1517 1522 1526 1529 1532 1535 1539 1542
1395 1399 1402 1404 1410 1415 1419 1423 1429 1436 1441 1447 1451 1456 1462 1469 1473 1478 1483 1490 1496 1499 1503 1506 1509 1514 1518 1523 1527 1530 1532 1536
1385 1390 1393 1396 1398 1405 1409 1415 1420 1425 1430 1436 1442 1448 1453 1457 1462 1467 1473 1479 1485 1489 1493 1497 1500 1505 1511 1517 1521 1524 1527 1530
1376 1379 1383 1387 1390 1394 1398 1405 1410 1415 1420 1425 1433 1440 1444 1449 1455 1459 1463 1469 1474 1481 1486 1491 1495 1498 1502 1509 1514 1518 1521 1524
1367 1370 1374 1378 1382 1384 1389 1393 1399 1404 1410 1416 1424 1430 1436 1441 1446 1452 1455 1459 1466 1471 1477 1483 1487 1492 1496 1502 1506 1511 1514 1517
1359 1362 1366 1368 1370 1373 1377 1380 1387 1393 1399 1405 1412 1418 1424 1431 1438 1443 1447 1451 1456 1461 1468 1475 1480 1485 1491 1495 1499 1503 1507 1509
1352 1355 1359 1360 1362 1364 1367 1370 1376 1382 1386 1394 1402 1409 1416 1423 1429 1434 1440 1444 1448 1454 1459 1465 1471 1478 1484 1488 1492 1497 1499 1503
1344 1346 1350 1354 1356 1358 1359 1363 1368 1371 1375 1383 1392 1400 1405 1412 1419 1424 1433 1437 1440 1446 1451 1457 1463 1468 1475 1481 1486 1489 1492 1494
1332 1336 1339 1341 1345 1347 1349 1352 1355 1361 1367 1374 1384 1390 1396 1402 1409 1417 1423 1429 1434 1439 1445 1448 1454 1459 1465 1471 1477 1483 1487 1491
1329 1328 1329 1330 1333 1337 1338 1343 1348 1353 1360 1365 1374 1382 1389 1394 1401 1407 1415 1420 1424 1429 1435 1441 1445 1452 1460 1467 1468 1475 1484 1490
1334 1331 1325 1323 1325 1330 1331 1336 1342 1347 1353 1358 1365 1375 1383 1388 1394 1401 1409 1412 1418 1422 1427 1433 1440 1444 1449 1456 1460 1469 1478 1484
1339 1332 1336 1333 1328 1328 1330 1333 1337 1343 1349 1355 1363 1369 1376 1381 1388 1394 1400 1407 1411 1415 1420 1425 1431 1436 1441 1449 1455 1461 1465 1477
1340 1339 1341 1339 1335 1334 1334 1335 1339 1343 1349 1355 1360 1365 1371 1378 1384 1389 1393 1398 1403 1409 1413 1418 1423 1430 1436 1442 1450 1458 1461 1467
1342 1342 1341 1342 1340 1338 1338 1340 1341 1344 1349 1355 1358 1363 1369 1374 1379 1382 1387 1391 1396 1399 1405 1411 1416 1422 1429 1436 1443 1451 1457 1464